{"data":{"norad_id":51993,"intl_designator":"2022-025AP","name":"STARLINK-3648","alt_names":[],"object_type":"PAYLOAD","status":"ACTIVE","operator":null,"country":"US","launch_date":"2022-03-09","launch_site_code":"AFETR","launch_vehicle":null,"mission":null,"orbit_class":"UNKNOWN","rcs_meters":null,"size_class":null,"mass_kg":null,"dimensions":null,"purposes":["comms"],"wikipedia_slug":null,"has_3d_model":false,"image_url":null,"decayed_at":null,"tle_current":{"epoch":"2026-05-25T03:12:27.282240Z","epoch_age_seconds":74087,"freshness":"FRESH","line1":"1 51993U 22025AP  26145.13364910  .00000771  00000+0  66557-4 0  9990","line2":"2 51993  53.2129  55.9505 0001554  74.2083 285.9081 15.08839102232602","mean_motion":15.08839102,"eccentricity":0.0001554,"inclination_deg":53.2129,"raan_deg":55.9505,"arg_perigee_deg":74.2083,"mean_anomaly_deg":285.9081,"bstar":6.6557e-5,"rev_number":23260,"period_min":95.437611478338,"perigee_km":538.67109475322,"apogee_km":540.82117283121,"semimajor_km":6917.8831337922,"source":"CELESTRAK","updated_at":"2026-05-25T13:38:16.998188Z"}}}